Погода в Кунтики

Погода в Кунтики : погода сейчас, прогноз погоды и архив. Всё, что Вы хотите узнать о погоде в Кунтики!

Хотите узнать прогноз погоды в Кунтики? Тогда Вам сюда: Погода в Кунтики

Поиск расширенной информации на нашем сайте:

Другие новости

Новости СМИ2

Главная страница сайта

Новости сайта

03.07.2017

Напоминаем, что на нашем специализированном сайте Метеоцентр.Азия вы можете получить высокодетализированные автоматические прогнозы погоды по пунктам России, СНГ и мира в авиационном формате (включающие направление и скорость ветра, видимость, явления погоды, количество и форму облачности, нижнюю и верхнюю границу облачности).


Погода в Кунтики - сегодня

Время (UTC), дата Ветер
(°,м/с) 
Видим.   Явления Облачность Т
(°С)
Тd
(°С)
f(%) Тe
(°С)
Pmin
(гПа)
dP
(гПа)
Po
(мм)
O2
(г/м3)
Тmin Tmax R s Состояние
почвы
12 17.04.18 280 (З) 20000 м  позёмок{ливн. осадки}  6/4 600 м кучево-дожд., верхняя 
[Cb cap|Ci fib]
-4.7 -14.1 48 -9  1016  1.7  754  310    -4.4  0.4     
15 17.04.18 290 (З) 20000 м    3/0 верхняя 
[Ci fib]
-8.7 -14.2 64 -8  1017.5  1.3  755  316           
18 17.04.18 300 (СЗ) 20000 м    ясно 
-10.8 -16.6 62 -13  1019  1.5  756  319           
21 17.04.18 320 (СЗ) 20000 м    ясно 
-13.9 -17.4 75 -14  1020.9  1.7  758  323           
00 18.04.18 тихо ()   20000 м    1/0 верхняя 
[Ci fib]
-15.8 -18.3 81 -16  1022.3  1.3  759  326  -15.9      32  равномерный
сухой снег
100% 
03 18.04.18 340 (С) 20000 м    ясно 
-9.8 -17.3 54 -12  1023.4  1.4  760  319           
06 18.04.18 280 (З) 20000 м    ясно 
-6.3 -16.6 44 -9  1023.7  0.4  760  315           
09 18.04.18 190 (Ю) 20000 м    1/1 1000 м 
[Cu hum]
-2.9 -15.9 36 -4  1022.6  -1  759  310           
12 18.04.18 300 (СЗ) 20000 м    3/1 1000 м верхняя 
[Sc|Ci fib]
-2.2 -15.3 36 -2  1021.6  -0.9  758  309    -1.2       
15 18.04.18 170 (Ю) 20000 м    1/0 верхняя 
[Ci sp]
-5.1 -14.1 49 -5  1021.1  -0.7  758  312           
18 18.04.18 190 (Ю) 20000 м    1/0 верхняя 
[Ci fib]
-8.9 -14 66 -11  1020.6  -0.6  758  317           
21 18.04.18 180 (Ю) 20000 м    1/0 верхняя 
[Ci fib]
-10 -14.9 67 -12  1019.5  -1.1  757  318           
00 19.04.18 190 (Ю) 20000 м    8/0 верхняя 
[Cc]
-8.7 -15 60 -12  1018.2  -1.3  756  316  -10.4      32  равномерный
сухой снег
100% 
03 19.04.18 190 (Ю) 20000 м    9/0 верхняя 
[Ci fib]
-2.1 -12.6 44 -4  1016.6  -1.3  755  308           
12 19.04.18 210 (ЮЗ) 5-10{12}  20000 м    10/3 600 м средняя, верхняя 
[Cu hum|Ac lent|Cs]
+3.4 -12.1 31 +1  1011.1  -1.4  751  300    +3.6       
15 19.04.18 190 (Ю) 4{11}  20000 м    10/0 верхняя 
[Cs]
+0.8 -10.2 44 -2  1010.7  -0.5  750  302           
18 19.04.18 190 (Ю) 20000 м    1/0 верхняя 
[Ci fib]
-0.5 -9.9 49 -4  1009.7  -1.1  750  304           
21 19.04.18 190 (Ю) 20000 м    10/0 верхняя 
[Ci fib]
-0.6 -7.7 59 -3  1008  -1.7  748  303           
00 20.04.18 170 (Ю) 20000 м    10/1 300 м кучево-дожд., средняя 
[Cb cap|As op]
+0.2 -6.2 62 -2  1006.1  -1.8  747  301  -1      31  равномерный
мокрый или
старый снег
100% 
03 20.04.18 190 (Ю) 5{10}  20000 м    10/0 средняя, верхняя 
[Ac trans|Ci sp]
+3.1 -4.4 58 +1  1004  -2  746  297           
12 20.04.18 170 (Ю) 3{10}  10 км  слаб. ливневой дождь  10/10 270 м кучево-дожд. 
[Cb cap]
+2.2 +0.8 90 +1  1002.7  -0.2  745  297    +7.2     
00 21.04.18 190 (Ю) 10 км  слаб. ливневой дождь  10/10 330 м кучево-дожд. 
[Cb cap]
+4.8 +3.5 91 +3  996.9  -0.1  740  293  +2.2    24  равномерный
мокрый или
старый снег
100% 
12 21.04.18 340 (С) 4000 м  слаб. ливневой снег  10/10 150 м кучево-дожд. 
[Cb cap]
-1 -1.9 94 -4  1002.5  1.2  744  301    +5     
00 22.04.18 340 (С) 4000 м  слаб. ливневой снег  10/10 240 м кучево-дожд. 
[Cb cap]
-4.6 -5.8 91 -8  1003.2  0.3  745  306  -4.7    34  равномерный
сухой снег
100% 
09 22.04.18 330 (СЗ) 20000 м    8/1 600 м верхняя 
[Cu hum|Cs]
-0.6 -9.7 50 -3  1009.7  2.8  750  304           
Время (UTC), дата Ветер
(°,м/с) 
Видим.   Явления Облачность Т
(°С)
Тd
(°С)
f(%) Тe
(°С)
Pmin
(гПа)
dP
(гПа)
Po
(мм)
O2
(г/м3)
Тmin Tmax R s Состояние
почвы

Для получения пояснительной информации подведите курсор к названию столбца.

ПОГОДА в Кунтики - архив

Всё, что Вы хотите узнать о погоде в Кунтики - удобно и подробно!

Выберите нужную дату (начиная с 1 января 2015* года) и нажмите кнопку "Найти".
Будут отображены архивные сводки погоды по пункту Кунтики, начиная с указанной даты.


Отображать данные в формате CSV (для использования в таблицах Excel)


Внимание! Наш архив погоды предназначен исключительно для личного некоммерческого использования в познавательных целях. Если Вам необходимы официальные справки о состоянии погоды (для производственных, юридических, коммерческих и т.п. целей), обращайтесь в органы Росгидромета.

*Примечание: данная дата относится к архиву по метеостанциям СССР (Россия, СНГ, Балтия).
Архив по метеостанциям Зарубежной Европы и Азии (кроме Китая) хранится 10 дней, по другим регионам земного шара (Китай, Африка, Америка, Австралия, Океания) - 1 день.

Кунтики - район местоположения метеостанции


Название, широта, долгота, высота метеостанции:
Кунтики 58.4°ш. 76.4°д. 81 м над ур. моря [Российская Федерация]

Дополнительная информация

В oтличие oт бoльшинства пoгoдных сайтoв мы публикуем пoдрoбную метеoинфoрмацию в детальнoм прoфессиoнальнoм фoрмате.

Характеристики температуры и влажнoсти вoздуха измеряются на высoте 2 м в тени вдали oт зданий и деревьев.
Скoрoсть ветра измеряется на высoте 10 м (на урoвне рoста челoвека скoрoсть ветра ниже в 1.5-2 раза). Если метеoстанция нахoдится в гoрoде или в лесу, тo скoрoсть ветра занижена на 2-4 м/с пo сравнению с oткрытым местoм. Скoрoсть ветра над акватoриями крупных рек и oзёр, а также на вершинах хoлмoв на 2-5 м/с выше, чем в oбычных услoвиях.
Атмoсфернoе давление в разных тoчках местнoсти мoжет значительнo oтличаться oт давления на метеoстанции, в зависимoсти oт услoвий рельефа (при пoдъёме на 10 м давление пoнижается примернo на 1 мм рт.ст.).